When you browse on this site, cookies collect data to enhance your experience and personalize the content and advertising you see.
Visit our Privacy Policy to learn more. By continuing to use the site, you agree to this use of cookies and data.
  • In Germany
  • List of Countries
  • For 7 days
  • Water Temperature
  • Satellite Maps
  • Weather Map
  • Weather Widgets
  • user-avatar
    Login

    Hourly Weather Yulara

    Today, 20 March, Wednesday

    Time Temperature Precipitation Wind Pressure Humidity
    00:00 +29°C° 0 mm 5 mps 716 mmHg 21%
    01:00 +28°C° 0 mm 5 mps 716 mmHg 22%
    02:00 +28°C° 0 mm 4 mps 716 mmHg 23%
    03:00 +27°C° 0 mm 4 mps 716 mmHg 25%
    04:00 +27°C° 0 mm 4 mps 716 mmHg 25%
    05:00 +27°C° 0 mm 4 mps 717 mmHg 26%
    06:00 +26°C° 0 mm 3 mps 717 mmHg 26%
    07:00 +28°C° 0 mm 4 mps 717 mmHg 23%
    08:00 +30°C° 0 mm 5 mps 717 mmHg 20%
    09:00 +34°C° 0 mm 7 mps 718 mmHg 16%
    10:00 +36°C° 0 mm 7 mps 718 mmHg 15%
    11:00 +38°C° 0 mm 6 mps 718 mmHg 13%
    12:00 +40°C° 0 mm 6 mps 717 mmHg 12%
    13:00 +41°C° 0 mm 6 mps 717 mmHg 11%
    14:00 +41°C° 0 mm 5 mps 716 mmHg 11%
    15:00 +42°C° 0 mm 5 mps 716 mmHg 11%
    16:00 +41°C° 0 mm 5 mps 716 mmHg 12%
    17:00 +41°C° 0 mm 4 mps 716 mmHg 12%
    18:00 +40°C° 0 mm 4 mps 716 mmHg 13%
    19:00 +37°C° 0 mm 4 mps 716 mmHg 15%
    20:00 +35°C° 0 mm 4 mps 716 mmHg 17%
    21:00 +33°C° 0 mm 4 mps 717 mmHg 19%
    22:00 +32°C° 0 mm 4 mps 717 mmHg 20%
    23:00 +32°C° 0 mm 4 mps 717 mmHg 22%

    Tomorrow, 21 March, Thursday

    Time Temperature Precipitation Wind Pressure Humidity
    00:00 +30°C° 0 mm 4 mps 717 mmHg 23%
    01:00 +29°C° 0 mm 4 mps 716 mmHg 25%
    02:00 +28°C° 0 mm 4 mps 716 mmHg 26%
    03:00 +28°C° 0 mm 4 mps 716 mmHg 28%
    04:00 +27°C° 0 mm 4 mps 716 mmHg 29%
    05:00 +26°C° 0 mm 3 mps 716 mmHg 30%
    06:00 +26°C° 0 mm 3 mps 716 mmHg 31%
    07:00 +28°C° 0 mm 4 mps 716 mmHg 28%
    08:00 +32°C° 0 mm 5 mps 717 mmHg 24%
    09:00 +34°C° 0 mm 7 mps 717 mmHg 20%
    10:00 +36°C° 0 mm 6 mps 717 mmHg 18%
    11:00 +39°C° 0 mm 5 mps 717 mmHg 16%
    12:00 +41°C° 0 mm 5 mps 716 mmHg 14%
    13:00 +41°C° 0 mm 5 mps 716 mmHg 13%
    14:00 +42°C° 0 mm 5 mps 715 mmHg 12%
    15:00 +43°C° 0 mm 5 mps 715 mmHg 12%
    16:00 +42°C° 0 mm 5 mps 714 mmHg 12%
    17:00 +41°C° 0 mm 5 mps 714 mmHg 13%
    18:00 +40°C° 0 mm 5 mps 714 mmHg 14%
    19:00 +39°C° 0 mm 5 mps 715 mmHg 15%
    20:00 +36°C° 0 mm 5 mps 715 mmHg 17%
    21:00 +34°C° 0 mm 5 mps 716 mmHg 19%
    22:00 +33°C° 0 mm 5 mps 716 mmHg 20%
    23:00 +32°C° 0 mm 5 mps 716 mmHg 21%

    Day after tomorrow, 22 March, Friday

    Time Temperature Precipitation Wind Pressure Humidity
    00:00 +32°C° 0 mm 5 mps 716 mmHg 23%
    01:00 +30°C° 0 mm 5 mps 716 mmHg 24%
    02:00 +29°C° 0 mm 5 mps 715 mmHg 25%
    03:00 +28°C° 0 mm 4 mps 715 mmHg 26%
    04:00 +28°C° 0 mm 4 mps 715 mmHg 27%
    05:00 +27°C° 0 mm 4 mps 715 mmHg 28%
    06:00 +26°C° 0 mm 3 mps 715 mmHg 29%
    07:00 +29°C° 0 mm 4 mps 716 mmHg 25%
    08:00 +32°C° 0 mm 5 mps 716 mmHg 22%
    09:00 +35°C° 0 mm 6 mps 716 mmHg 18%
    10:00 +38°C° 0 mm 6 mps 716 mmHg 16%
    11:00 +39°C° 0 mm 6 mps 716 mmHg 14%
    12:00 +41°C° 0 mm 5 mps 715 mmHg 13%
    13:00 +42°C° 0 mm 5 mps 715 mmHg 12%
    14:00 +42°C° 0 mm 4 mps 714 mmHg 11%
    15:00 +43°C° 0 mm 4 mps 713 mmHg 10%
    16:00 +42°C° 0 mm 4 mps 713 mmHg 11%
    17:00 +42°C° 0 mm 4 mps 713 mmHg 11%
    18:00 +41°C° 0 mm 4 mps 713 mmHg 12%
    19:00 +38°C° 0 mm 4 mps 713 mmHg 13%
    20:00 +36°C° 0 mm 4 mps 714 mmHg 15%
    21:00 +34°C° 0 mm 4 mps 714 mmHg 16%
    22:00 +34°C° 0 mm 4 mps 714 mmHg 17%
    23:00 +33°C° 0 mm 5 mps 714 mmHg 18%

    23 March, Saturday

    Time Temperature Precipitation Wind Pressure Humidity
    00:00 +32°C° 0 mm 5 mps 714 mmHg 18%
    01:00 +32°C° 0 mm 5 mps 713 mmHg 19%
    02:00 +30°C° 0 mm 5 mps 713 mmHg 21%
    03:00 +29°C° 0 mm 5 mps 712 mmHg 22%
    04:00 +29°C° 0 mm 4 mps 712 mmHg 24%
    05:00 +28°C° 0 mm 4 mps 712 mmHg 27%
    06:00 +27°C° 0 mm 3 mps 712 mmHg 29%
    07:00 +30°C° 0 mm 3 mps 713 mmHg 28%
    08:00 +34°C° 0 mm 4 mps 713 mmHg 27%
    09:00 +36°C° 0 mm 5 mps 714 mmHg 26%
    10:00 +39°C° 0 mm 5 mps 714 mmHg 22%
    11:00 +41°C° 0 mm 5 mps 714 mmHg 18%
    12:00 +42°C° 0 mm 5 mps 714 mmHg 15%
    13:00 +43°C° 0 mm 5 mps 713 mmHg 14%
    14:00 +43°C° 0 mm 4 mps 712 mmHg 13%
    15:00 +44°C° 0 mm 4 mps 711 mmHg 12%
    16:00 +43°C° 0 mm 3 mps 712 mmHg 12%
    17:00 +42°C° 0 mm 3 mps 712 mmHg 12%
    18:00 +40°C° 0 mm 2 mps 712 mmHg 13%
    19:00 +39°C° 0 mm 3 mps 712 mmHg 14%
    20:00 +37°C° 0 mm 4 mps 713 mmHg 15%
    21:00 +36°C° 0 mm 5 mps 713 mmHg 16%
    22:00 +35°C° 0 mm 5 mps 713 mmHg 18%
    23:00 +34°C° 0 mm 5 mps 713 mmHg 19%

    24 March, Sunday

    Time Temperature Precipitation Wind Pressure Humidity
    00:00 +33°C° 0 mm 5 mps 713 mmHg 21%
    01:00 +33°C° 0 mm 5 mps 713 mmHg 23%
    02:00 +32°C° 0 mm 4 mps 712 mmHg 25%
    03:00 +30°C° 0 mm 3 mps 712 mmHg 27%
    04:00 +29°C° 0 mm 3 mps 712 mmHg 30%
    05:00 +29°C° 0 mm 4 mps 713 mmHg 33%
    06:00 +28°C° 0 mm 4 mps 713 mmHg 37%
    07:00 +30°C° 0 mm 4 mps 713 mmHg 36%
    08:00 +32°C° 0 mm 4 mps 714 mmHg 36%
    09:00 +34°C° 0 mm 4 mps 714 mmHg 36%
    10:00 +35°C° 0 mm 4 mps 714 mmHg 33%
    11:00 +37°C° 0 mm 4 mps 713 mmHg 29%
    12:00 +40°C° 0 mm 5 mps 713 mmHg 26%
    13:00 +40°C° 0 mm 5 mps 712 mmHg 24%
    14:00 +41°C° 0 mm 5 mps 711 mmHg 23%
    15:00 +41°C° 0 mm 5 mps 711 mmHg 21%
    16:00 +40°C° 0 mm 5 mps 711 mmHg 24%
    17:00 +39°C° 0 mm 6 mps 711 mmHg 28%
    18:00 +38°C° 0 mm 6 mps 712 mmHg 31%
    19:00 +35°C° 0.4 mm 6 mps 713 mmHg 38%
    20:00 +33°C° 0.4 mm 5 mps 713 mmHg 44%
    21:00 +30°C° 0.4 mm 5 mps 714 mmHg 51%
    22:00 +30°C° 1.4 mm 6 mps 714 mmHg 53%
    23:00 +29°C° 1.4 mm 7 mps 715 mmHg 54%

    25 March, Monday

    Time Temperature Precipitation Wind Pressure Humidity
    00:00 +28°C° 1.4 mm 9 mps 715 mmHg 56%
    01:00 +27°C° 0 mm 9 mps 715 mmHg 58%
    02:00 +26°C° 0 mm 10 mps 715 mmHg 59%
    03:00 +26°C° 0 mm 10 mps 715 mmHg 61%
    04:00 +24°C° 0 mm 10 mps 715 mmHg 64%
    05:00 +23°C° 0 mm 10 mps 716 mmHg 67%
    06:00 +22°C° 0 mm 10 mps 716 mmHg 70%
    07:00 +23°C° 0 mm 10 mps 717 mmHg 64%
    08:00 +23°C° 0 mm 10 mps 717 mmHg 59%
    09:00 +24°C° 0 mm 10 mps 717 mmHg 53%
    10:00 +27°C° 0 mm 10 mps 717 mmHg 47%
    11:00 +29°C° 0 mm 10 mps 717 mmHg 41%
    12:00 +31°C° 0 mm 10 mps 717 mmHg 35%
    13:00 +32°C° 0 mm 10 mps 716 mmHg 34%
    14:00 +32°C° 0 mm 10 mps 716 mmHg 34%
    15:00 +33°C° 0 mm 10 mps 715 mmHg 33%
    16:00 +32°C° 0 mm 10 mps 716 mmHg 34%
    17:00 +32°C° 0 mm 10 mps 716 mmHg 35%
    18:00 +31°C° 0 mm 9 mps 717 mmHg 36%
    19:00 +29°C° 0 mm 9 mps 717 mmHg 36%
    20:00 +28°C° 0 mm 9 mps 718 mmHg 35%
    21:00 +27°C° 0 mm 9 mps 719 mmHg 35%
    22:00 +26°C° 0 mm 9 mps 719 mmHg 33%
    23:00 +24°C° 0 mm 10 mps 719 mmHg 30%
    Show more